Starlink 11474

operational
NORAD ID: 62065 Int'l Des: 2024-217 Owner: SPXS Country: US Constellation: starlink
LEOCIRCULAR

About Starlink 11474

Description loading...

Live Position

Loading 3D Globe...

Upcoming Passes

Altitude History

Altitude vs Time

uPlot chart will show altitude changes over time

Two-Line Element Set

1 62065U 24217J 25304.60490709 .00165140 00000-0 13377-2 0 9994
2 62065 53.1566 347.2794 0001072 73.8661 286.2475 15.69769527 54903
Epoch: Oct 31, 2025 • Age: 8 hours

Current Status

Altitude 361.9 km
Velocity 7.70 km/s
Sub-Earth Point 37.50°N, 109.57°E
Launch Date Nov 24, 2024
Age 0.9 years
Type internet

Technical Details

Classification Payload
Mass 960.00 kg
Dry Mass 910.00 kg
Total Mass 960.00 kg
Length 0.30 m
Diameter 4.10 m
Span 29.00 m
Shape Box + pan
Manufacturer SPXS
Bus Type Starlink V2MD
Phase Status In Orbit
Owner/State SPXS/US

Large Constellations

Loading constellations...